Meteo orario Koziniec

Oggi, 4 Marzo, Giovedi

Tempo Temperatura Precipitazioni Vento Pressione Umidità
00:00 +4°C° 0 mm 3 m/s 737 mm Hg 75%
01:00 +4°C° 0 mm 3 m/s 737 mm Hg 75%
02:00 +4°C° 0 mm 3 m/s 736 mm Hg 78%
03:00 +3°C° 0 mm 3 m/s 735 mm Hg 80%
04:00 +3°C° 0 mm 3 m/s 735 mm Hg 83%
05:00 +3°C° 0 mm 3 m/s 735 mm Hg 84%
06:00 +2°C° 0 mm 3 m/s 734 mm Hg 85%
07:00 +2°C° 0 mm 3 m/s 734 mm Hg 87%
08:00 +4°C° 0 mm 3 m/s 734 mm Hg 82%
09:00 +7°C° 0 mm 3 m/s 734 mm Hg 78%
10:00 +7°C° 0 mm 4 m/s 734 mm Hg 74%
11:00 +8°C° 0 mm 4 m/s 734 mm Hg 72%
12:00 +10°C° 0 mm 4 m/s 733 mm Hg 70%
13:00 +10°C° 0 mm 5 m/s 733 mm Hg 68%
14:00 +10°C° 0.2 mm 4 m/s 732 mm Hg 72%
15:00 +10°C° 0.2 mm 4 m/s 732 mm Hg 76%
16:00 +9°C° 0.2 mm 3 m/s 731 mm Hg 81%
17:00 +8°C° 0.8 mm 3 m/s 731 mm Hg 85%
18:00 +8°C° 0.8 mm 3 m/s 731 mm Hg 89%
19:00 +7°C° 0.8 mm 2 m/s 730 mm Hg 93%
20:00 +5°C° 0.5 mm 3 m/s 731 mm Hg 92%
21:00 +4°C° 0.5 mm 3 m/s 731 mm Hg 91%
22:00 +3°C° 0.5 mm 4 m/s 731 mm Hg 90%
23:00 +3°C° 0.7 mm 3 m/s 731 mm Hg 91%

Domani, 5 Marzo, Venerdi

Tempo Temperatura Precipitazioni Vento Pressione Umidità
00:00 +2°C° 0.7 mm 3 m/s 731 mm Hg 92%
01:00 +1°C° 0.7 mm 3 m/s 732 mm Hg 93%
02:00 +1°C° 0.3 mm 3 m/s 732 mm Hg 94%
03:00 +1°C° 0.3 mm 3 m/s 732 mm Hg 95%
04:00 0°C° 0.3 mm 3 m/s 732 mm Hg 96%
05:00 0°C° 0.4 mm 3 m/s 733 mm Hg 95%
06:00 -2°C° 0.4 mm 4 m/s 734 mm Hg 94%
07:00 -3°C° 0.4 mm 4 m/s 734 mm Hg 94%
08:00 -3°C° 0.2 mm 4 m/s 735 mm Hg 89%
09:00 -2°C° 0.2 mm 4 m/s 735 mm Hg 85%
10:00 -2°C° 0.2 mm 5 m/s 736 mm Hg 80%
11:00 -2°C° 0.1 mm 4 m/s 736 mm Hg 74%
12:00 -1°C° 0.1 mm 4 m/s 737 mm Hg 69%
13:00 -1°C° 0.1 mm 4 m/s 737 mm Hg 63%
14:00 -1°C° 0 mm 4 m/s 737 mm Hg 61%
15:00 -1°C° 0 mm 4 m/s 737 mm Hg 59%
16:00 -1°C° 0 mm 4 m/s 738 mm Hg 57%
17:00 -1°C° 0 mm 3 m/s 738 mm Hg 62%
18:00 -2°C° 0 mm 2 m/s 739 mm Hg 67%
19:00 -2°C° 0 mm 2 m/s 739 mm Hg 72%
20:00 -3°C° 0 mm 2 m/s 740 mm Hg 72%
21:00 -3°C° 0 mm 2 m/s 740 mm Hg 73%
22:00 -3°C° 0 mm 2 m/s 741 mm Hg 74%
23:00 -3°C° 0 mm 2 m/s 741 mm Hg 75%

Dopodomani, 6 Marzo, Sabato

Tempo Temperatura Precipitazioni Vento Pressione Umidità
00:00 -3°C° 0 mm 2 m/s 742 mm Hg 76%
01:00 -3°C° 0 mm 2 m/s 742 mm Hg 77%
02:00 -3°C° 0 mm 2 m/s 742 mm Hg 77%
03:00 -4°C° 0 mm 2 m/s 742 mm Hg 78%
04:00 -4°C° 0 mm 2 m/s 743 mm Hg 79%
05:00 -4°C° 0 mm 2 m/s 743 mm Hg 79%
06:00 -2°C° 0 mm 1 m/s 743 mm Hg 79%
07:00 -2°C° 0 mm 1 m/s 744 mm Hg 80%
08:00 -1°C° 0 mm 1 m/s 744 mm Hg 71%
09:00 -2°C° 0 mm 2 m/s 744 mm Hg 63%
10:00 -1°C° 0 mm 2 m/s 744 mm Hg 54%
11:00 +1°C° 0 mm 2 m/s 744 mm Hg 50%
12:00 +2°C° 0 mm 2 m/s 744 mm Hg 46%
13:00 +2°C° 0 mm 2 m/s 744 mm Hg 41%
14:00 +2°C° 0 mm 2 m/s 744 mm Hg 42%
15:00 +2°C° 0 mm 2 m/s 743 mm Hg 42%
16:00 +3°C° 0 mm 2 m/s 743 mm Hg 43%
17:00 +1°C° 0 mm 2 m/s 743 mm Hg 49%
18:00 -1°C° 0 mm 2 m/s 742 mm Hg 55%
19:00 -2°C° 0 mm 2 m/s 742 mm Hg 60%
20:00 -2°C° 0 mm 2 m/s 742 mm Hg 61%
21:00 -3°C° 0 mm 2 m/s 742 mm Hg 62%
22:00 -3°C° 0 mm 2 m/s 742 mm Hg 62%
23:00 -3°C° 0 mm 2 m/s 742 mm Hg 62%

7 Marzo, Domenica

Tempo Temperatura Precipitazioni Vento Pressione Umidità
00:00 -4°C° 0 mm 3 m/s 741 mm Hg 61%
01:00 -4°C° 0 mm 3 m/s 741 mm Hg 61%
02:00 -4°C° 0 mm 3 m/s 740 mm Hg 61%
03:00 -4°C° 0 mm 3 m/s 740 mm Hg 61%
04:00 -4°C° 0 mm 3 m/s 739 mm Hg 61%
05:00 -4°C° 0 mm 3 m/s 739 mm Hg 61%
06:00 -4°C° 0 mm 3 m/s 739 mm Hg 60%
07:00 -4°C° 0 mm 3 m/s 739 mm Hg 60%
08:00 -2°C° 0 mm 3 m/s 739 mm Hg 55%
09:00 0°C° 0 mm 3 m/s 739 mm Hg 50%
10:00 +1°C° 0 mm 4 m/s 738 mm Hg 46%
11:00 +1°C° 0 mm 4 m/s 738 mm Hg 44%
12:00 +3°C° 0 mm 4 m/s 738 mm Hg 43%
13:00 +4°C° 0 mm 4 m/s 737 mm Hg 42%
14:00 +4°C° 0 mm 4 m/s 737 mm Hg 44%
15:00 +4°C° 0 mm 4 m/s 736 mm Hg 47%
16:00 +4°C° 0 mm 3 m/s 735 mm Hg 49%
17:00 +2°C° 0 mm 3 m/s 735 mm Hg 56%
18:00 +1°C° 0 mm 2 m/s 735 mm Hg 63%
19:00 +1°C° 0 mm 1 m/s 735 mm Hg 70%
20:00 0°C° 0 mm 1 m/s 735 mm Hg 71%
21:00 0°C° 0 mm 1 m/s 735 mm Hg 73%
22:00 0°C° 0 mm 1 m/s 735 mm Hg 74%
23:00 0°C° 0 mm 1 m/s 735 mm Hg 76%

8 Marzo, Lunedi

Tempo Temperatura Precipitazioni Vento Pressione Umidità
00:00 0°C° 0 mm 1 m/s 735 mm Hg 78%
01:00 0°C° 0 mm 1 m/s 735 mm Hg 80%
02:00 -1°C° 0 mm 1 m/s 735 mm Hg 82%
03:00 -1°C° 0 mm 1 m/s 734 mm Hg 83%
04:00 -1°C° 0 mm 1 m/s 734 mm Hg 85%
05:00 -1°C° 0 mm 1 m/s 734 mm Hg 86%
06:00 0°C° 0 mm 1 m/s 735 mm Hg 87%
07:00 0°C° 0 mm 1 m/s 735 mm Hg 88%
08:00 0°C° 0.1 mm 1 m/s 735 mm Hg 87%
09:00 +1°C° 0.1 mm 1 m/s 735 mm Hg 85%
10:00 +2°C° 0.1 mm 1 m/s 736 mm Hg 84%
11:00 +2°C° 0.1 mm 1 m/s 736 mm Hg 83%
12:00 +3°C° 0.1 mm 1 m/s 736 mm Hg 81%
13:00 +2°C° 0.1 mm 2 m/s 736 mm Hg 80%
14:00 +2°C° 0.1 mm 2 m/s 736 mm Hg 79%
15:00 +2°C° 0.1 mm 2 m/s 736 mm Hg 78%
16:00 +2°C° 0.1 mm 2 m/s 736 mm Hg 77%
17:00 +2°C° 0 mm 1 m/s 736 mm Hg 82%
18:00 +1°C° 0 mm 1 m/s 736 mm Hg 86%
19:00 0°C° 0 mm 1 m/s 737 mm Hg 91%
20:00 0°C° 0 mm 1 m/s 737 mm Hg 90%
21:00 0°C° 0 mm 1 m/s 737 mm Hg 90%
22:00 0°C° 0 mm 1 m/s 737 mm Hg 90%
23:00 -1°C° 0 mm 1 m/s 737 mm Hg 89%

9 Marzo, Martedi

Tempo Temperatura Precipitazioni Vento Pressione Umidità
00:00 -1°C° 0 mm 1 m/s 737 mm Hg 88%
01:00 -1°C° 0 mm 1 m/s 737 mm Hg 87%
02:00 -1°C° 0 mm 1 m/s 737 mm Hg 86%
03:00 -1°C° 0 mm 1 m/s 737 mm Hg 86%
04:00 -2°C° 0 mm 1 m/s 737 mm Hg 86%
05:00 -1°C° 0 mm 1 m/s 737 mm Hg 84%
06:00 -1°C° 0 mm 1 m/s 737 mm Hg 83%
07:00 -1°C° 0 mm 1 m/s 737 mm Hg 82%
08:00 0°C° 0 mm 1 m/s 737 mm Hg 76%
09:00 +1°C° 0 mm 1 m/s 737 mm Hg 70%
10:00 +3°C° 0 mm 1 m/s 737 mm Hg 63%
11:00 +3°C° 0 mm 1 m/s 737 mm Hg 61%
12:00 +3°C° 0 mm 2 m/s 737 mm Hg 59%
13:00 +4°C° 0 mm 2 m/s 737 mm Hg 56%
14:00 +3°C° 0 mm 2 m/s 737 mm Hg 57%
15:00 +4°C° 0 mm 1 m/s 737 mm Hg 58%
16:00 +4°C° 0 mm 1 m/s 736 mm Hg 59%
17:00 +3°C° 0 mm 1 m/s 737 mm Hg 64%
18:00 +2°C° 0 mm 1 m/s 737 mm Hg 68%
19:00 +1°C° 0 mm 1 m/s 737 mm Hg 73%
20:00 0°C° 0 mm 1 m/s 737 mm Hg 75%
21:00 0°C° 0 mm 1 m/s 737 mm Hg 77%
22:00 0°C° 0 mm 1 m/s 737 mm Hg 79%
23:00 0°C° 0 mm 1 m/s 737 mm Hg 80%
Mostrare altro